Webcam 1 more information Webcam 1


Webcam 2 more information Webcam 2


altri nostri siti meteo:

Pomeziameteo 1Sito sul meteo

Pomeziameteo DashboardSito sul meteo

Caput FrigorisSito sul meteo

BarcellonameteoSito sul meteo

MeteoipassiSito sul meteo

ViterbometeoSito sul meteo

MeteotortoretoSito sul meteo

Stazione LineameteoSito sul meteo



Nessuna attenzione particolare richiesta.    Non ci sono allerte meteo

Weather Underground Storia pagina Testo

Quotidiano Riepilogo per Luglio 20, 2018 Unita:  Metrico    Inglese   Entrambi
« Indietro Day
Avanti Day »
Quotidiano Settimanale mensile Annuale Personalizzato
  Attuale: Max: Min: Media:
Temperatura: -1.4 °C -17.8 °C -6.3 °C -5.2 °C
P.to Rugiada: -16.3 °C -17.8 °C -17.3 °C -14.8 °C
Umidita: 18 % Humidity % 16 % 33 %
Vel. Vento: 0 km/h 0 km/h 0 km/h 8.7 km/h
Raffiche: 18.2 km/h 0 km/h - -
Vento:Calm - - WSW
Pressione: 34212.1 hPa 0 hPa 34212.1 hPa -
Precipitazioni: 0 mm      
Historical Graphs
 
 
Dati di tabella per il Luglio 20, 2018
Tempo Temperatura P.to Rugiada Pressione Vento Vel. Vento Raffiche Umidita Tasso delle precipitazioni (oraria)
-17.8 °C -17.8 °C 0 hPa Calm     Humidity % 0 mm
00:00 -5.2 °C -12.1 °C 34222.3 hPa Calm   10.3 km/h 46 % 0 mm
00:05 -5.3 °C -12.1 °C 34222.3 hPa NW 7.7 km/h 10.3 km/h 46 % 0 mm
00:10 -5.3 °C -12.1 °C 34222.3 hPa Calm   10.3 km/h 46 % 0 mm
00:15 -5.3 °C -11.9 °C 34222.3 hPa WNW 5.1 km/h 10.3 km/h 47 % 0 mm
00:20 -5.3 °C -11.8 °C 34222.3 hPa West 7.7 km/h 7.7 km/h 48 % 0 mm
00:25 -5.3 °C -11.7 °C 34222.3 hPa West 5.1 km/h 10.3 km/h 48 % 0 mm
00:30 -5.3 °C -11.7 °C 34222.3 hPa WSW 7.7 km/h 12.9 km/h 48 % 0 mm
00:35 -5.3 °C -11.9 °C 34222.3 hPa WSW 7.7 km/h 12.9 km/h 47 % 0 mm
00:40 -5.3 °C -12.1 °C 34222.3 hPa WSW 10.3 km/h 12.9 km/h 46 % 0 mm
00:45 -5.3 °C -12.3 °C 34222.3 hPa NW 5.1 km/h 15.6 km/h 45 % 0 mm
00:50 -5.3 °C -12.3 °C 34222.3 hPa Calm   10.3 km/h 45 % 0 mm
00:55 -5.4 °C -12.4 °C 34222.3 hPa Calm   7.7 km/h 45 % 0 mm
01:00 -5.4 °C -12.6 °C 34222.3 hPa WSW 5.1 km/h 12.9 km/h 44 % 0 mm
01:05 -5.5 °C -12.7 °C 34222.3 hPa WNW 7.7 km/h 12.9 km/h 44 % 0 mm
01:10 -5.4 °C -12.9 °C 34222.3 hPa WSW 5.1 km/h 15.6 km/h 42 % 0 mm
01:15 -5.3 °C -13.1 °C 34222.3 hPa WNW 7.7 km/h 12.9 km/h 41 % 0 mm
01:20 -5.4 °C -12.9 °C 34222.3 hPa WNW 10.3 km/h 12.9 km/h 42 % 0 mm
01:25 -5.5 °C -13 °C 34222.3 hPa West 7.7 km/h 12.9 km/h 42 % 0 mm
01:30 -5.5 °C -13 °C 34222.3 hPa West 7.7 km/h 10.3 km/h 42 % 0 mm
01:35 -5.5 °C -13.2 °C 34222.3 hPa WSW 10.3 km/h 15.6 km/h 41 % 0 mm
01:40 -5.5 °C -13.4 °C 34222.3 hPa WSW 10.3 km/h 15.6 km/h 40 % 0 mm
01:45 -5.4 °C -13.6 °C 34222.3 hPa West 7.7 km/h 15.6 km/h 39 % 0 mm
01:50 -5.4 °C -13.8 °C 34222.3 hPa WSW 7.7 km/h 15.6 km/h 38 % 0 mm
01:55 -5.4 °C -14.2 °C 34222.3 hPa West 12.9 km/h 20.8 km/h 36 % 0 mm
02:00 -5.4 °C -14.2 °C 34222.3 hPa WSW 10.3 km/h 18.2 km/h 36 % 0 mm
02:05 -5.4 °C -14.4 °C 34222.3 hPa WSW 12.9 km/h 15.6 km/h 35 % 0 mm
02:10 -5.4 °C -14.4 °C 34222.3 hPa WSW 12.9 km/h 20.8 km/h 35 % 0 mm
02:15 -5.4 °C -14.4 °C 34222.3 hPa SW 12.9 km/h 20.8 km/h 35 % 0 mm
02:20 -5.5 °C -14.5 °C 34222.3 hPa SSW 10.3 km/h 20.8 km/h 35 % 0 mm
02:25 -5.5 °C -14.5 °C 34222.3 hPa WSW 7.7 km/h 15.6 km/h 35 % 0 mm
02:30 -5.6 °C -14.6 °C 34222.3 hPa WSW 10.3 km/h 12.9 km/h 35 % 0 mm
02:35 -5.6 °C -14.6 °C 34222.3 hPa WSW 10.3 km/h 10.3 km/h 35 % 0 mm
02:40 -5.6 °C -14.6 °C 34222.3 hPa WSW 5.1 km/h 10.3 km/h 35 % 0 mm
02:45 -5.7 °C -14.5 °C 34222.3 hPa WSW 10.3 km/h 12.9 km/h 36 % 0 mm
02:50 -5.7 °C -14.5 °C 34222.3 hPa WSW 5.1 km/h 12.9 km/h 36 % 0 mm
02:55 -5.7 °C -14.7 °C 34222.3 hPa WSW 10.3 km/h 15.6 km/h 35 % 0 mm
03:00 -5.7 °C -14.7 °C 34222.3 hPa West 10.3 km/h 15.6 km/h 35 % 0 mm
03:05 -5.7 °C -14.7 °C 34222.3 hPa West 10.3 km/h 18.2 km/h 35 % 0 mm
03:10 -5.7 °C -14.7 °C 34222.3 hPa SW 5.1 km/h 15.6 km/h 35 % 0 mm
03:15 -5.8 °C -14.8 °C 34222.3 hPa WSW 18.2 km/h 20.8 km/h 35 % 0 mm
03:20 -5.8 °C -14.8 °C 34222.3 hPa WSW 10.3 km/h 20.8 km/h 35 % 0 mm
03:25 -5.9 °C -14.6 °C 34222.3 hPa SW 10.3 km/h 12.9 km/h 36 % 0 mm
03:30 -5.9 °C -14.8 °C 34222.3 hPa SW 10.3 km/h 20.8 km/h 35 % 0 mm
03:35 -5.8 °C -14.8 °C 34222.3 hPa WNW 10.3 km/h 18.2 km/h 35 % 0 mm
03:40 -5.8 °C -14.9 °C 34222.3 hPa SW 10.3 km/h 15.6 km/h 34 % 0 mm
03:45 -5.8 °C -15.1 °C 34222.3 hPa West 7.7 km/h 12.9 km/h 34 % 0 mm
03:50 -5.8 °C -15.1 °C 34222.3 hPa SSW 10.3 km/h 15.6 km/h 34 % 0 mm
03:55 -5.8 °C -15.1 °C 34222.3 hPa SW 7.7 km/h 18.2 km/h 34 % 0 mm
04:00 -5.8 °C -15.2 °C 34222.3 hPa SW 10.3 km/h 15.6 km/h 33 % 0 mm
04:05 -5.8 °C -15.2 °C 34222.3 hPa SSW 12.9 km/h 20.8 km/h 33 % 0 mm
04:10 -5.8 °C -15.3 °C 34222.3 hPa SW 7.7 km/h 18.2 km/h 33 % 0 mm
04:15 -5.8 °C -15.3 °C 34222.3 hPa SW 10.3 km/h 20.8 km/h 33 % 0 mm
04:20 -5.8 °C -15.3 °C 34222.3 hPa SW 10.3 km/h 15.6 km/h 33 % 0 mm
04:25 -5.8 °C -15.3 °C 34222.3 hPa SW 5.1 km/h 12.9 km/h 33 % 0 mm
04:30 -5.8 °C -15.3 °C 34222.3 hPa WSW 12.9 km/h 18.2 km/h 33 % 0 mm
04:35 -5.8 °C -15.3 °C 34222.3 hPa West 18.2 km/h 18.2 km/h 33 % 0 mm
04:40 -5.9 °C -15.3 °C 34222.3 hPa WSW 7.7 km/h 20.8 km/h 33 % 0 mm
04:45 -5.9 °C -15.4 °C 34222.3 hPa West 12.9 km/h 18.2 km/h 33 % 0 mm
04:50 -5.9 °C -15.1 °C 34222.3 hPa WSW 10.3 km/h 15.6 km/h 34 % 0 mm
04:55 -6.1 °C -15.2 °C 34222.3 hPa WSW 10.3 km/h 15.6 km/h 34 % 0 mm
05:00 -6.1 °C -15 °C 34222.3 hPa WNW 7.7 km/h 18.2 km/h 35 % 0 mm
05:05 -6.1 °C -15.1 °C 34222.3 hPa West 7.7 km/h 18.2 km/h 35 % 0 mm
05:10 -6.2 °C -15.1 °C 34222.3 hPa West 10.3 km/h 15.6 km/h 35 % 0 mm
05:15 -6.1 °C -15.1 °C 34222.3 hPa West 10.3 km/h 15.6 km/h 35 % 0 mm
05:20 -6.1 °C -15.1 °C 34222.3 hPa WNW 5.1 km/h 15.6 km/h 35 % 0 mm
05:25 -6.2 °C -15.1 °C 34222.3 hPa WSW 10.3 km/h 15.6 km/h 35 % 0 mm
05:30 -6.2 °C -15.1 °C 34222.3 hPa West 10.3 km/h 15.6 km/h 35 % 0 mm
05:35 -6.1 °C -15.3 °C 34222.3 hPa WSW 7.7 km/h 20.8 km/h 34 % 0 mm
05:40 -6.1 °C -15.3 °C 34222.3 hPa West 12.9 km/h 20.8 km/h 34 % 0 mm
05:45 -6.1 °C -15.3 °C 34222.3 hPa SW 10.3 km/h 20.8 km/h 34 % 0 mm
05:50 -6.2 °C -14.9 °C 34222.3 hPa West 7.7 km/h 15.6 km/h 36 % 0 mm
05:55 -6.3 °C -14.8 °C 34222.3 hPa West 10.3 km/h 15.6 km/h 37 % 0 mm
06:00 -6.3 °C -14.8 °C 34222.3 hPa West 10.3 km/h 18.2 km/h 37 % 0 mm
06:05 -6.3 °C -15.1 °C 34222.3 hPa West 10.3 km/h 23.3 km/h 36 % 0 mm
06:10 -6.3 °C -15.1 °C 34222.3 hPa WSW 12.9 km/h 20.8 km/h 36 % 0 mm
06:15 -6.3 °C -14.9 °C 34222.3 hPa West 12.9 km/h 20.8 km/h 36 % 0 mm
06:20 -6.3 °C -14.9 °C 34222.3 hPa SW 12.9 km/h 20.8 km/h 36 % 0 mm
06:25 -6.3 °C -14.9 °C 34222.3 hPa SW 12.9 km/h 20.8 km/h 36 % 0 mm
06:30 -6.2 °C -14.9 °C 34222.3 hPa WNW 10.3 km/h 15.6 km/h 36 % 0 mm
06:35 -6.2 °C -15.2 °C 34222.3 hPa SW 10.3 km/h 18.2 km/h 35 % 0 mm
06:40 -6.2 °C -14.9 °C 34222.3 hPa SSW 7.7 km/h 12.9 km/h 36 % 0 mm
06:45 -6.2 °C -15.1 °C 34222.3 hPa WSW 10.3 km/h 15.6 km/h 35 % 0 mm
06:50 -6.1 °C -15.1 °C 34222.3 hPa West 12.9 km/h 15.6 km/h 35 % 0 mm
06:55 -6.1 °C -15.3 °C 34222.3 hPa SW 15.6 km/h 20.8 km/h 34 % 0 mm
07:00 -6.1 °C -15 °C 34222.3 hPa West 7.7 km/h 15.6 km/h 35 % 0 mm
07:05 -5.9 °C -15.1 °C 34222.3 hPa WSW 12.9 km/h 18.2 km/h 34 % 0 mm
07:10 -5.9 °C -15.1 °C 34222.3 hPa West 12.9 km/h 20.8 km/h 34 % 0 mm
07:15 -5.8 °C -15.1 °C 34222.3 hPa SSW 10.3 km/h 20.8 km/h 34 % 0 mm
07:20 -5.8 °C -15.2 °C 34222.3 hPa WSW 12.9 km/h 18.2 km/h 33 % 0 mm
07:25 -5.7 °C -15.2 °C 34222.3 hPa WSW 7.7 km/h 18.2 km/h 33 % 0 mm
07:30 -5.6 °C -15.1 °C 34222.3 hPa SW 10.3 km/h 18.2 km/h 33 % 0 mm
07:35 -5.5 °C -15.2 °C 34222.3 hPa West 12.9 km/h 20.8 km/h 32 % 0 mm
07:40 -5.3 °C -15.1 °C 34222.3 hPa WSW 10.3 km/h 18.2 km/h 32 % 0 mm
07:45 -5.2 °C -15.2 °C 34222.3 hPa WSW 12.9 km/h 20.8 km/h 31 % 0 mm
07:50 -5.1 °C -15.1 °C 34222.3 hPa WSW 5.1 km/h 15.6 km/h 31 % 0 mm
07:55 -5.1 °C -15.1 °C 34222.3 hPa West 10.3 km/h 20.8 km/h 31 % 0 mm
08:00 -4.9 °C -15 °C 34222.3 hPa WSW 10.3 km/h 15.6 km/h 31 % 0 mm
08:05 -4.8 °C -15.2 °C 34222.3 hPa West 12.9 km/h 18.2 km/h 30 % 0 mm
08:10 -4.7 °C -15.3 °C 34222.3 hPa WSW 10.3 km/h 18.2 km/h 29 % 0 mm
08:15 -4.6 °C -14.9 °C 34222.3 hPa WSW 10.3 km/h 15.6 km/h 30 % 0 mm
08:20 -4.4 °C -15.1 °C 34222.3 hPa SSW 10.3 km/h 12.9 km/h 29 % 0 mm
08:25 -4.3 °C -15 °C 34222.3 hPa SW 10.3 km/h 12.9 km/h 29 % 0 mm
08:30 -4.2 °C -15.1 °C 34222.3 hPa SW 7.7 km/h 12.9 km/h 28 % 0 mm
08:35 -4.1 °C -15.3 °C 34222.3 hPa SW 5.1 km/h 12.9 km/h 27 % 0 mm
08:40 -3.9 °C -15.8 °C 34222.3 hPa SW 10.3 km/h 15.6 km/h 25 % 0 mm
08:45 -3.8 °C -16 °C 34222.3 hPa SW 5.1 km/h 15.6 km/h 24 % 0 mm
08:50 -3.6 °C -16.2 °C 34222.3 hPa SW 10.3 km/h 12.9 km/h 23 % 0 mm
08:55 -3.4 °C -16.4 °C 34222.3 hPa WSW 7.7 km/h 15.6 km/h 22 % 0 mm
09:00 -3.3 °C -16.3 °C 34222.3 hPa SW 10.3 km/h 15.6 km/h 22 % 0 mm
09:05 -3.2 °C -16.2 °C 34212.1 hPa SW 10.3 km/h 12.9 km/h 22 % 0 mm
09:10 -3.1 °C -16.2 °C 34212.1 hPa SSW 5.1 km/h 15.6 km/h 22 % 0 mm
09:15 -2.9 °C -16.4 °C 34212.1 hPa WSW 5.1 km/h 10.3 km/h 21 % 0 mm
09:20 -2.8 °C -16.6 °C 34212.1 hPa SW 5.1 km/h 7.7 km/h 20 % 0 mm
09:25 -2.6 °C -16.5 °C 34212.1 hPa SW 5.1 km/h 10.3 km/h 20 % 0 mm
09:30 -2.5 °C -16.4 °C 34212.1 hPa Calm   10.3 km/h 20 % 0 mm
09:35 -2.4 °C -16.3 °C 34212.1 hPa Calm     20 % 0 mm
09:40 -2.2 °C -16.6 °C 34212.1 hPa Calm   7.7 km/h 19 % 0 mm
09:45 -2.1 °C -16.5 °C 34212.1 hPa Calm   5.1 km/h 19 % 0 mm
09:50 -1.9 °C -16.3 °C 34212.1 hPa Calm   7.7 km/h 19 % 0 mm
09:55 -1.7 °C -16.6 °C 34212.1 hPa Calm   5.1 km/h 18 % 0 mm
10:00 -1.5 °C -16.4 °C 34212.1 hPa ESE 10.3 km/h 12.9 km/h 18 % 0 mm
10:05 -1.6 °C -17.3 °C 34212.1 hPa ESE 7.7 km/h 12.9 km/h 16 % 0 mm
10:10 -1.6 °C -16.4 °C 34212.1 hPa ESE 7.7 km/h 12.9 km/h 18 % 0 mm
10:15 -1.6 °C -16.4 °C 34212.1 hPa East 10.3 km/h 20.8 km/h 18 % 0 mm
10:20 -1.5 °C -16.4 °C 34212.1 hPa ESE 10.3 km/h 18.2 km/h 18 % 0 mm
10:25 -1.4 °C -16.3 °C 34212.1 hPa Calm   18.2 km/h 18 % 0 mm
Stazione meteorologica di Castelnuovo Vomano (TE)
complimenti di Weather Underground - 3 mb

Script sviluppato da  Jim McMurry - jmcmurry@mwt.net Adattato per il modello da  Wim van der Kuil - Leuven-Template.eu

Potete trovare le nostre info meteo anche a:

Weather Underground

AWEKAS

Citizen Weather Observer Program (CWOP)

HAMweather, WeatherForYou, PWS Weather

Strumentazione usata:

Stazione meteo
Oregon 928

Programma gestore dati meteo
WVIEW

Server per i dati meteo
Pc-WDS5

Oregon 928

WVIEW

Pc-WDS5